Location: Austin
(30.3000°N, 97.7500°W)
Time: 00:57:25
(UTC-06:00)

Cosmos 1340 Rocket - Pass Details

Date: 04 November 2025
Orbit: 488 x 519 km, 81.2° (Epoch: 15 November)

Event Time Altitude Azimuth Distance (km) Brightness Sun altitude
Rises 18:15:41 0° 187° (S) 2,613 6.6 -8.1°
Reaches altitude 10° 18:17:47 10° 187° (S) 1,734 5.6 -8.5°
Maximum altitude 18:21:36 88° 275° (W) 523 2.7 -9.3°
Drops below altitude 10° 18:25:28 10° 7° (N) 1,754 5.2 -10.1°
Sets 18:27:37 0° 8° (N) 2,646 6.1 -10.6°
